Location: Estes P
(40.3770°N, 105.5210°W)
Time: 08:56:43
(UTC-07:00)

ISS - Visible Passes

Search period start: 12 December 2017 00:00
Search period end: 22 December 2017 00:00
Orbit: 402 x 406 km, 51.6° (Epoch: 12 December)

Date Brightness Start Highest point End Pass type
(mag) Time Alt. Az. Time Alt. Az. Time Alt. Az.
12 Dec -2.0 17:04:32 10° NNW 17:06:46 17° NNE 17:09:01 10° ENE visible
12 Dec -2.1 18:40:26 10° NW 18:42:07 28° NW 18:42:07 28° NW visible
13 Dec -3.3 17:48:15 10° NW 17:51:23 40° NNE 17:52:34 28° E visible
13 Dec -0.3 19:25:06 10° W 19:25:16 11° W 19:25:16 11° W visible
14 Dec -2.8 18:32:26 10° WNW 18:35:34 43° SW 18:35:58 40° SSW visible
15 Dec -3.9 17:40:02 10° NW 17:43:19 87° SW 17:46:35 10° SE visible
16 Dec -0.9 18:24:56 10° W 18:27:12 17° SW 18:29:28 10° S visible
17 Dec -2.0 17:32:04 10° WNW 17:35:04 33° SW 17:38:02 10° SSE visible
19 Dec -0.4 17:24:48 10° W 17:26:36 14° SW 17:28:23 10° SSW visible
